ARIANE 44LP DEB, 33546

Orbit data source: Space-Track

ARIANE 44LP DEB, 33546 is space debris in HEO originally from a launch on Sun, 11 Dec 1988 UTC launched from the French Guiana (FRGUI). Debris objects in space refer to the collection of defunct objects orbiting the Earth. Examples of debris include non-operational satellites, rocket bodies, and fragments generated from explosions, collisions, or faulty payload assembly.

Loading next visibility...
Identifier
33546, 1988-109V
Orbit
HEO
Country
Flag of FRFR
Related business
Manufacturer
Unknown
Mission
Spacecraft
Bus & Motor
Unknown
Mass
Unknown
Launch date (UTC)
1988-12-11 (37 years ago)
Launch vehicle
Unknown
Launch site
French Guiana (FRGUI)
Object type
Payload
Rocket body
Debris
Shape & HBR
Unknown shape, 1.1 m
Radar Cross Section
Small (<0.1 m²)

Expand to show TLE details & history
Last TLE update: 11 hours ago

TLE from 11 hours ago
0 ARIANE 44LP DEB
1 33546U 88109V   26035.58726017 -.00000090  00000-0 -48684-3 0  9993
2 33546   7.2786 294.2808 7122197 307.2616 329.8611  2.23378777 18476
Epoch: 2026-02-04T14:05Z
TLE epoch observation values (Epoch: 2026-02-04T14:05:39.278Z)
Latitude
-1.23161°
Longitude
138.06548°
Altitude
11,749.969 km
Speed
5.277 km/s
True Right ascension
08h 16m 55s
True Declination
-1° 13' 43"
Sunlit
Object was in daylight at epoch
Visualization orbit readout
Latitude
Unknown
Longitude
Unknown
Altitude
Unknown
Speed
Unknown
Apparent Right ascension
Unknown
Apparent Declination
Unknown
Sunlit
N/A
Visualization observer readout
Local Sidereal Time
03:02:35
Azimuth
Unknown
Elevation
Unknown
Doppler factor
Unknown
Orbital elements
Apogee altitude
35,955.799 km
Perigee altitude
737.114 km
Semi-major axis
24,724.593 km
Eccentricity
0.71222
Inclination
7.2786°
RAAN
294.2808°
Arg. of periapsis
307.2616°
True anomaly
242.61588°
Mean anomaly
329.8611°
Eccentric anomaly
292.03457°
Mean motion
0.55828 °/min
Orbital period
644.84 mins
BSTAR
-0.00048684
Loading maneuver chart data...
Computing Atmospheric mass density...
Loading historical data...
Loading historical data...
Loading historical data...
Loading historical data...
Loading historical data...
Loading historical data...
Loading historical data...

Documentation

Showing up to 5 results
|